RH
100 100 100 100 100 100 99 100 100 100 100 100 100 100 100 100 100 100 100 100 100 100 100 100 100 99 98 95 92 90 88 87 87 87 87 87 86 86 85 83 82 81 80 78 75 71 67 63 60 59 58 55 53 49 47 44 41 39 40 45 51 57 63 64 67 72 77 84 90 94 96 97 97 97 97 97 97 97 97 98 98 98 97 94 93 93
100 100 100 100 100 100 99 100 100 100 100 100 100 100 100 100 100 100 100 100 100 100 100 100 100 99 99 96 94 91 89 89 88 88 87 87 86 86 85 83 81 80 78 75 71 67 62 59 57 55 52 49 47 45 43 40 39 41 45 50 55 60 61 62 64 67 72 82 88 92 96 97 98 98 98 98 97 97 98 98 98 98 97 95 93 93
100 100 99 100 100 100 100 100 99 99 100 100 100 100 100 100 100 100 100 100 100 100 100 100 100 100 99 97 95 93 91 90 89 88 87 87 86 85 84 82 80 77 74 70 65 60 55 52 50 47 44 44 43 42 40 41 43 47 52 57 60 62 64 63 63 64 67 78 87 93 97 98 98 99 99 99 98 98 98 98 98 98 98 96 94 93
100 100 100 100 100 100 100 100 100 100 100 100 100 100 100 100 100 100 100 100 100 100 100 100 100 100 100 99 97 95 93 91 90 88 87 86 85 84 82 79 76 72 68 62 57 52 49 46 44 43 41 42 42 43 44 47 50 54 59 62 63 65 66 64 64 66 70 80 88 94 97 98 99 99 99 99 98 98 98 97 97 97 98 97 95 93
100 100 100 100 100 100 100 100 100 100 100 100 100 100 100 100 100 100 100 100 100 100 100 99 99 99 99 99 98 95 93 91 89 88 86 85 83 81 79 76 71 67 61 55 51 48 46 42 41 41 43 45 47 49 50 54 57 60 63 64 65 65 66 66 68 73 80 88 93 96 98 99 99 99 99 99 98 98 98 97 97 97 97 98 96 95
100 100 100 100 100 100 100 100 100 100 100 100 100 100 100 100 100 100 100 100 99 99 99 98 97 97 97 97 97 95 92 90 88 86 84 83 81 78 75 71 67 61 56 52 49 48 47 43 43 46 50 53 54 56 58 61 62 64 64 66 66 66 66 67 72 79 89 94 97 98 98 99 99 99 99 98 98 98 99 98 98 98 97 97 97 96
100 100 100 100 100 100 100 100 100 100 100 100 100 100 100 100 100 100 100 99 98 98 97 96 95 95 95 96 95 93 90 88 86 84 82 80 78 75 72 68 63 59 54 52 52 51 50 49 52 56 60 61 62 63 63 65 65 66 65 67 67 67 67 69 75 84 94 97 98 98 98 99 99 99 99 98 98 98 99 99 99 98 98 98 97 96
100 100 100 100 100 100 100 100 100 100 100 100 100 100 100 100 100 100 99 98 97 96 95 94 94 94 94 94 93 91 88 87 85 83 81 79 77 74 70 67 63 60 57 57 56 57 57 59 63 67 69 69 68 68 68 68 68 68 67 68 68 68 67 69 75 85 95 97 98 98 98 98 98 98 98 98 98 98 99 99 99 99 98 98 97 96
99 100 100 100 100 100 100 100 100 100 100 100 100 100 100 100 100 99 99 97 95 94 93 92 92 92 92 91 90 88 87 86 85 84 82 81 78 76 73 71 68 66 64 63 64 65 67 70 74 76 74 74 73 72 71 70 70 70 70 70 70 69 68 70 76 85 95 97 98 98 98 98 98 98 98 98 98 98 99 99 99 98 98 97 97 96
99 99 100 100 100 100 100 100 100 100 100 100 100 100 99 100 100 100 99 98 96 95 93 92 90 89 88 87 86 85 84 83 83 82 81 81 80 79 78 77 75 74 72 72 73 75 78 79 81 80 78 76 75 73 71 71 71 72 73 73 72 71 70 72 78 86 95 97 98 98 98 97 98 98 98 98 98 99 99 99 98 97 95 95 95 95
99 99 100 99 99 100 100 100 100 100 100 100 100 100 100 99 99 99 99 99 98 97 95 93 91 89 88 87 85 84 84 83 83 83 83 82 82 82 82 82 81 81 81 82 84 85 85 84 82 80 77 76 74 73 73 73 73 74 75 75 74 73 72 76 82 88 95 97 97 97 97 97 98 98 98 98 98 99 99 98 96 93 91 92 93 93
99 99 100 100 99 99 100 100 100 100 100 100 100 100 100 99 99 98 99 99 99 98 97 95 93 91 89 88 87 87 86 86 85 85 86 86 87 87 87 88 89 90 90 90 91 90 88 85 81 78 77 76 75 74 75 76 76 75 75 75 75 74 75 79 84 90 95 97 97 98 97 97 97 98 98 98 98 98 97 95 91 88 86 88 90 92
99 99 99 100 99 99 99 100 100 100 100 100 99 99 99 100 99 99 99 99 99 98 96 94 92 90 89 88 88 87 87 87 87 87 87 88 89 90 90 91 92 93 92 91 91 90 88 84 82 79 78 77 75 74 76 76 76 75 75 74 74 75 76 79 84 90 95 96 97 96 93 94 95 96 97 97 95 93 91 89 86 83 82 86 89 92
98 99 99 99 99 99 99 99 99 99 99 99 98 98 99 99 99 99 99 99 98 97 94 92 89 88 87 86 86 86 87 87 87 87 87 88 87 87 87 87 87 87 85 86 87 87 85 83 81 80 80 79 78 78 81 80 78 75 74 74 75 76 76 79 83 87 91 95 96 95 91 92 93 95 96 92 87 83 81 80 79 79 80 85 89 92
97 98 97 97 98 98 99 99 98 98 98 98 99 99 99 99 99 98 98 98 97 95 92 89 87 85 84 84 84 85 85 86 86 86 86 85 84 82 80 80 79 77 75 76 78 78 77 77 80 83 86 86 84 83 85 86 80 75 74 75 76 76 76 78 81 84 87 91 92 92 89 91 93 93 92 86 80 77 75 75 75 76 78 84 88 90
96 96 95 96 96 97 98 98 97 98 98 99 99 99 99 99 98 97 96 96 95 94 93 90 87 85 82 82 83 84 84 84 83 83 83 81 79 76 73 74 72 68 65 65 67 69 70 72 77 84 90 85 79 75 76 79 77 75 77 78 77 77 77 78 80 83 86 89 91 90 88 91 91 89 86 80 76 73 71 70 71 71 73 77 80 82
96 96 95 95 96 97 98 97 97 98 99 100 99 98 97 97 96 95 94 94 94 94 93 91 90 87 82 80 81 82 82 81 80 80 79 78 74 70 67 67 65 62 59 59 62 65 69 72 79 86 92 87 80 75 75 75 75 77 80 79 78 77 77 79 82 84 86 89 91 92 91 89 85 81 77 72 69 66 65 65 65 66 67 68 68 68
97 96 95 95 96 97 98 98 98 99 100 100 99 99 97 96 95 94 93 93 93 93 92 91 90 87 83 80 79 79 79 77 76 75 75 75 72 67 61 61 61 60 59 62 64 67 70 75 83 91 94 87 82 80 79 79 80 81 81 79 77 77 78 81 83 84 86 88 89 89 86 81 77 72 67 64 61 59 59 60 61 62 61 60 60 60
97 97 97 97 97 97 98 99 99 99 100 100 99 99 99 97 96 95 94 93 93 92 90 90 88 86 83 79 78 77 76 73 71 71 71 73 70 64 56 58 60 62 64 69 71 74 76 83 90 95 92 83 80 80 81 81 82 82 80 77 76 76 77 78 79 80 80 81 80 78 75 70 66 62 59 56 54 53 54 56 57 56 56 55 55 55
97 98 98 98 98 98 99 99 99 100 99 99 98 99 99 99 97 96 95 94 93 91 89 89 87 84 81 78 76 74 71 68 67 67 69 73 71 65 56 62 65 68 71 76 79 82 83 88 92 94 90 83 79 79 80 81 80 78 76 73 72 72 73 72 71 70 70 69 68 66 63 60 57 54 52 50 49 49 51 52 53 54 53 51 50 49
97 98 98 98 98 98 98 99 99 99 99 99 99 99 99 99 98 98 96 95 93 92 91 89 85 80 77 75 73 70 67 65 64 66 70 74 74 70 63 69 74 78 80 83 85 86 85 88 92 95 96 91 85 81 79 78 75 71 69 67 67 67 67 65 63 62 62 62 61 58 55 53 50 48 46 45 45 46 49 50 49 49 48 47 45 42
95 96 97 97 97 97 98 99 99 100 99 99 99 99 99 99 99 99 98 96 95 94 92 88 83 78 76 74 71 68 63 62 62 65 70 77 80 78 72 77 81 84 85 87 88 88 86 87 90 95 97 94 89 83 77 73 68 64 62 61 62 62 61 59 58 57 57 56 54 51 48 46 44 42 41 41 41 42 45 45 45 43 42 40 37 34
93 94 95 96 96 97 98 99 99 100 100 99 99 98 98 98 98 98 98 97 96 95 92 87 82 78 77 75 71 66 61 60 61 65 72 79 84 85 79 83 85 86 87 90 91 90 87 85 86 87 88 85 82 79 73 68 64 61 58 57 57 57 57 55 54 54 53 51 48 46 43 41 40 39 38 38 38 38 38 38 37 36 34 32 29 28
93 94 95 96 96 97 99 99 99 100 100 99 99 99 99 98 98 98 98 97 96 94 91 87 84 81 79 76 71 66 60 58 61 67 76 82 86 86 83 84 85 86 86 89 90 89 86 83 79 76 74 69 70 71 66 62 59 57 54 54 53 53 53 53 52 51 49 47 45 43 41 40 38 38 37 37 36 36 35 34 32 31 29 28 27 27
95 95 95 96 96 97 98 98 99 99 99 100 100 99 100 99 99 99 98 97 95 94 92 90 88 85 83 79 75 69 62 58 62 70 78 84 87 87 86 84 84 84 85 87 89 87 82 79 77 73 70 66 64 63 60 58 56 54 52 51 51 51 51 51 50 48 46 44 43 41 40 39 38 37 36 35 34 33 32 30 29 28 28 28 28 29
96 95 95 95 95 96 96 97 98 98 99 99 99 99 99 99 99 99 98 97 96 95 94 93 90 88 85 82 80 75 67 60 63 70 79 84 87 88 87 84 83 83 84 86 87 85 79 76 75 73 70 66 62 59 55 55 54 52 51 51 50 50 50 49 48 46 45 43 42 41 39 38 37 36 35 34 32 31 30 29 29 29 30 31 32 32
98 97 96 96 96 96 96 96 97 98 98 98 98 98 98 99 99 99 99 98 97 95 94 91 89 86 83 82 80 78 72 66 67 72 78 82 86 88 87 84 82 81 81 83 83 82 77 74 73 72 69 64 60 57 55 54 53 52 51 50 50 50 49 49 47 46 45 43 42 40 39 38 37 35 34 32 31 30 29 29 30 31 34 37 38 38
99 99 98 98 98 97 97 97 97 97 97 97 97 97 97 97 98 99 99 98 96 94 92 89 86 84 81 79 78 76 75 70 70 73 76 81 85 87 86 83 81 80 79 81 82 81 78 74 72 70 66 62 60 58 56 55 54 53 51 51 50 50 50 49 47 46 44 43 41 39 38 37 35 34 32 31 30 30 31 32 34 36 40 44 45 45
99 99 99 99 99 99 99 99 99 98 98 97 97 97 97 96 96 96 96 95 94 93 90 88 85 83 80 77 76 75 74 72 72 73 76 80 84 87 86 82 80 79 79 79 79 78 75 73 71 68 65 62 61 59 58 56 55 53 52 51 51 50 50 48 47 45 44 42 40 38 36 35 34 32 31 30 31 32 33 36 39 43 48 50 52 52
99 99 99 99 99 99 99 99 99 100 99 98 98 98 98 96 95 93 93 93 93 91 90 87 84 81 79 77 76 75 74 73 72 73 76 80 84 87 87 83 81 79 78 77 75 72 70 70 69 67 64 62 62 61 60 58 56 54 53 52 52 51 50 48 46 45 43 40 38 37 35 34 32 31 30 31 33 34 36 38 43 49 54 56 56 56
99 99 99 99 99 99 99 99 99 99 100 99 100 99 99 98 96 94 92 92 91 90 89 86 83 80 78 77 77 77 75 74 72 73 77 81 85 87 87 85 82 80 77 74 70 66 66 67 68 69 66 64 63 62 61 59 57 55 54 53 53 52 49 47 45 43 41 39 37 35 34 32 31 31 32 34 35 36 37 39 45 52 59 61 61 61
100 100 100 100 100 99 99 99 99 99 99 99 99 99 99 99 97 95 92 91 90 88 87 84 82 80 78 77 77 77 77 77 75 74 78 82 86 87 87 86 83 80 77 72 67 64 63 63 67 70 70 68 66 64 62 60 57 56 54 54 53 52 49 47 44 42 39 36 35 33 32 31 32 33 35 36 37 37 37 39 45 53 62 65 66 67
100 100 100 100 100 100 100 100 100 100 100 100 100 100 99 99 97 95 92 90 89 87 85 83 82 81 80 78 79 80 82 82 78 76 78 83 86 88 88 87 84 81 77 71 67 64 63 62 65 68 71 71 69 66 63 60 58 57 55 55 54 52 49 46 43 39 36 34 32 31 30 30 32 35 37 37 36 36 36 38 43 51 61 67 71 74
100 100 100 100 100 100 100 100 100 100 100 100 100 100 99 99 97 95 92 90 88 87 85 83 82 82 82 81 84 87 90 87 83 79 78 83 86 88 88 87 85 81 77 70 66 64 65 64 65 66 70 73 71 68 63 60 59 58 57 57 56 54 49 46 41 37 34 32 31 30 31 32 34 36 37 36 35 34 35 37 41 47 56 66 74 79
100 100 100 100 100 100 100 100 100 100 100 100 100 100 99 98 97 94 92 89 88 87 86 84 83 82 82 83 87 91 95 92 87 82 79 82 85 88 89 87 84 80 75 69 66 66 67 65 65 66 69 72 74 72 65 61 59 59 60 60 60 57 52 47 42 37 34 32 32 34 36 38 39 39 37 35 34 34 35 36 39 45 53 63 73 81
100 100 100 100 100 100 100 100 100 100 100 100 100 100 100 99 97 95 92 90 89 88 87 86 84 83 82 82 84 88 92 91 88 84 81 83 85 87 88 87 83 77 70 66 65 66 67 67 67 67 67 69 72 73 68 62 61 62 64 63 61 58 53 48 44 40 37 36 37 39 41 43 43 42 38 36 35 35 36 37 40 45 53 63 72 80
100 100 100 100 100 100 100 100 100 100 100 100 100 100 100 100 99 97 94 92 91 90 89 88 86 85 84 82 82 83 85 87 87 86 84 85 87 88 88 85 79 72 65 64 65 66 67 68 68 68 67 67 70 72 73 67 66 66 65 62 59 56 54 50 46 43 40 40 41 44 46 48 47 44 40 38 37 37 37 37 40 46 56 66 73 79
100 100 100 100 100 100 100 100 100 100 100 100 100 100 100 100 100 99 97 95 93 92 91 89 88 88 87 86 85 85 86 88 90 89 88 88 89 89 87 81 74 67 61 62 63 65 66 66 66 66 68 70 73 75 73 69 68 67 64 59 57 56 56 53 49 46 44 44 45 47 49 50 49 47 44 42 42 42 40 38 42 49 59 68 74 78
100 100 100 100 100 100 100 100 100 100 100 100 100 100 100 100 100 100 99 97 96 94 93 92 92 92 92 92 92 92 93 94 94 94 92 92 92 90 85 75 68 62 58 59 62 64 64 62 62 65 69 72 75 76 71 68 67 67 65 63 62 60 56 54 53 51 49 50 50 51 51 51 50 48 46 46 46 46 44 44 48 56 66 72 76 78
100 100 100 100 100 100 100 100 100 100 100 100 100 100 100 99 99 99 99 99 99 98 96 96 96 96 97 97 97 97 97 98 97 96 95 94 93 89 80 67 59 54 54 56 60 64 65 64 65 67 69 71 73 74 74 72 74 75 74 70 67 63 57 56 56 55 55 56 57 56 54 51 49 47 45 46 47 48 48 51 57 65 73 78 80 81
100 100 100 100 100 99 100 99 99 99 99 99 99 99 99 99 99 99 99 99 99 99 99 99 99 99 99 99 98 98 98 98 98 98 96 95 91 83 70 59 53 50 52 55 60 64 67 68 69 70 71 71 73 74 75 77 76 75 72 71 68 64 60 60 60 60 60 61 61 59 56 52 48 45 44 45 46 48 50 57 64 71 77 81 84 86
100 100 99 99 99 99 99 99 99 99 99 99 99 99 98 99 99 99 99 98 98 98 99 99 98 98 97 97 96 97 97 97 97 97 96 92 83 71 59 54 51 50 52 56 60 63 64 65 68 70 72 72 73 74 76 78 77 74 69 69 68 66 63 65 65 64 63 64 63 60 56 52 48 45 43 44 46 49 53 60 67 74 78 81 84 86
99 99 99 99 99 98 98 98 98 98 98 98 98 98 98 98 98 98 98 98 98 98 98 98 97 97 96 95 95 95 95 95 95 94 92 83 72 61 54 53 52 52 54 59 62 64 64 64 66 70 72 73 73 74 76 78 76 73 70 67 68 70 68 69 67 65 64 65 65 62 58 52 47 45 43 45 49 53 57 62 68 73 78 80 83 85
99 99 98 98 98 98 98 97 97 98 98 98 98 97 97 98 98 98 98 97 97 97 97 97 96 95 95 95 94 94 94 93 91 87 83 74 65 58 55 55 56 56 58 60 62 64 64 64 66 69 72 74 75 75 75 76 74 71 70 68 70 72 73 72 70 69 67 66 65 62 57 50 46 44 45 48 52 56 60 65 70 73 76 78 81 84
98 98 97 97 97 97 97 97 97 97 97 97 97 97 97 97 98 97 97 97 97 97 97 96 96 95 94 94 94 94 93 89 84 79 74 67 62 58 57 59 62 63 63 62 61 62 64 67 69 70 71 71 71 72 73 73 73 72 71 70 71 73 74 74 73 72 70 69 66 62 55 49 47 47 50 51 53 56 61 66 70 73 76 78 80 84
98 97 97 97 97 97 96 96 97 97 97 97 97 97 97 97 97 97 97 97 96 96 96 95 94 93 92 92 92 92 91 88 83 78 72 66 62 60 60 61 62 64 64 64 63 62 62 67 70 72 71 70 70 71 72 72 73 74 73 73 73 74 75 75 75 75 73 71 66 60 52 48 48 51 52 52 54 58 62 67 70 73 76 78 80 84
97 97 97 97 97 97 96 96 96 96 97 96 96 96 96 97 97 97 97 96 96 95 95 94 92 91 91 90 89 88 88 87 85 82 78 72 68 65 64 63 63 62 62 63 63 64 65 68 71 71 70 71 72 73 74 74 75 75 76 75 76 77 77 78 77 75 74 71 67 60 51 48 49 51 51 53 56 60 63 66 70 73 75 78 81 84
97 97 97 97 97 97 96 96 96 96 96 96 96 96 96 96 97 97 96 96 96 95 94 93 91 91 90 89 88 87 86 86 87 86 85 80 76 73 71 70 69 68 67 67 68 69 72 74 75 74 71 70 72 74 75 76 76 76 75 75 76 77 78 79 77 74 73 71 66 60 54 55 56 56 54 57 60 62 63 66 69 72 75 78 81 85
97 97 97 97 96 96 96 96 96 96 96 96 96 95 95 96 96 97 96 96 95 94 93 92 91 91 90 89 88 88 87 87 88 89 89 88 86 84 82 80 79 78 78 77 77 77 77 77 77 76 74 73 73 74 76 77 77 76 75 74 75 76 78 78 76 74 72 70 65 61 58 61 61 60 59 63 64 64 64 66 69 71 74 78 81 85
97 97 96 96 96 96 96 96 96 96 96 96 96 96 95 96 96 96 97 96 95 94 93 91 90 90 90 90 90 89 89 89 90 91 93 93 92 90 89 87 86 85 85 83 81 79 78 79 78 77 76 78 77 77 76 77 78 79 79 78 77 76 78 77 76 74 72 71 69 65 63 66 65 62 61 66 67 67 66 67 69 71 74 78 82 85
97 97 96 96 96 96 96 96 96 96 96 96 96 96 96 96 96 96 96 96 95 94 93 92 90 90 90 90 90 90 89 90 91 93 94 94 93 92 90 87 85 84 82 79 76 74 73 74 76 77 78 78 79 80 80 80 80 82 86 85 81 79 79 78 77 76 76 76 74 72 71 71 70 67 65 68 69 69 69 70 71 72 75 79 82 86
Wind_Speed
19 20 20 19 19 18 18 19 21 22 22 21 21 21 22 23 24 26 27 28 28 27 27 28 29 28 27 25 24 23 22 21 20 19 18 16 15 14 12 10 8 7 6 6 6 6 7 8 8 8 8 7 6 5 4 3 2 2 2 2 3 3 4 4 5 6 6 7 7 8 8 9 10 10 11 12 13 14 15 16 16 17 17 18 19 20
20 21 20 19 18 18 17 18 20 22 23 23 23 24 25 27 28 29 29 28 26 25 26 27 28 27 26 25 24 23 22 21 20 18 17 16 14 12 11 9 8 7 7 7 8 9 9 10 9 9 8 7 6 4 3 2 2 2 2 3 3 4 5 5 6 6 6 7 7 8 8 9 10 11 11 12 13 14 15 16 16 17 17 18 19 20
18 19 19 18 18 17 16 17 18 21 23 24 25 27 29 31 32 31 29 27 25 24 24 25 26 26 26 25 24 23 22 20 19 18 16 14 13 11 10 9 8 8 8 9 10 10 10 10 10 9 7 6 5 3 2 1 1 1 2 3 4 5 6 6 7 7 6 7 7 8 8 9 10 11 12 13 14 15 15 16 17 17 18 19 19 20
16 17 18 18 18 17 17 17 18 20 23 25 27 29 32 33 33 32 30 27 25 24 23 24 25 25 25 24 23 22 21 20 18 16 15 13 12 10 10 9 9 9 10 10 11 11 10 10 9 8 6 5 4 3 2 1 0 1 2 3 4 5 6 6 7 7 7 7 7 8 9 9 10 11 12 13 14 15 16 16 17 18 18 19 20 20
13 16 19 19 18 17 17 18 20 22 24 26 28 30 32 33 33 32 30 27 25 23 23 23 24 24 24 24 23 22 20 19 17 15 13 12 11 10 10 10 10 10 11 11 11 10 10 9 8 7 5 5 4 3 2 1 0 1 2 3 4 5 6 6 6 7 7 7 8 8 9 10 11 12 12 13 14 15 16 16 17 18 19 19 20 21
14 18 20 20 19 18 19 20 22 24 26 27 28 30 31 32 32 31 29 27 25 23 22 22 22 22 23 23 23 22 19 18 16 14 13 12 11 11 11 11 11 11 11 11 10 9 9 8 7 6 5 5 4 3 2 1 0 2 3 4 4 5 5 6 6 6 7 7 8 9 10 10 11 12 13 13 14 15 16 17 17 18 19 19 20 21
15 20 21 21 20 21 21 21 23 27 29 29 29 30 30 31 31 30 29 28 26 23 21 21 21 22 22 23 23 21 19 17 16 14 13 13 12 12 12 12 12 11 11 10 10 9 8 8 7 6 6 5 4 3 2 0 1 2 3 4 4 5 5 6 6 6 7 8 8 9 10 11 11 12 13 14 15 15 16 17 17 18 19 20 20 21
16 20 21 21 21 21 21 21 23 27 30 31 31 30 29 29 29 29 29 29 26 23 21 21 21 22 22 23 22 22 20 19 17 16 15 14 14 13 13 13 12 11 11 10 9 9 8 8 7 7 6 5 4 2 1 1 1 2 3 4 4 5 6 6 6 7 7 8 9 9 10 11 12 12 13 14 15 16 16 17 18 19 19 20 21 22
18 18 19 20 21 21 19 19 22 26 29 30 31 30 29 28 27 28 29 28 26 23 22 22 22 22 22 21 21 20 19 19 18 18 17 16 15 15 14 13 12 11 11 10 10 9 9 8 8 7 6 5 3 2 1 1 1 2 3 4 5 5 6 6 7 7 8 8 9 10 10 11 12 13 13 14 15 16 17 17 18 19 20 20 21 22
20 18 17 18 20 21 19 18 20 24 26 27 28 29 30 29 28 26 25 25 24 23 23 24 23 23 22 21 20 19 19 19 18 17 17 16 16 15 14 13 12 11 11 10 10 9 9 9 8 7 6 5 3 2 1 1 1 2 3 4 5 6 6 7 7 7 8 9 9 10 11 11 12 13 13 14 15 16 17 18 18 19 20 21 22 23
19 19 17 16 17 19 20 21 21 23 24 24 24 25 28 29 29 26 22 21 21 22 22 23 24 23 22 21 20 21 21 21 20 19 18 17 16 15 14 13 13 12 11 11 11 10 9 9 8 6 5 4 3 1 1 1 1 2 3 4 5 6 6 7 7 8 8 9 10 10 11 12 12 13 14 14 15 16 17 18 19 19 20 21 22 23
18 18 17 17 16 17 18 20 22 24 25 23 21 18 18 22 25 26 24 21 21 21 21 22 22 22 20 20 20 22 23 25 24 23 22 20 19 17 16 15 14 13 12 12 11 10 9 8 7 5 4 3 2 1 1 1 1 2 3 4 5 5 6 6 7 8 9 9 10 10 11 12 12 13 14 15 15 16 17 18 19 20 21 22 23 24
18 19 18 18 17 17 17 18 19 21 22 21 18 16 15 17 21 23 23 22 22 22 21 21 21 20 20 19 20 21 23 25 25 25 24 22 20 19 18 17 16 14 13 12 11 10 9 7 6 5 3 2 2 1 0 1 2 2 3 4 5 5 6 7 7 8 9 10 10 10 11 12 12 13 14 15 16 16 17 18 19 20 21 22 23 24
17 18 17 17 16 17 18 19 18 18 18 18 18 19 20 21 22 22 21 20 19 20 21 21 20 19 19 19 19 21 23 24 24 24 24 22 21 19 18 17 17 15 14 12 10 9 9 7 6 4 3 2 1 1 1 2 2 3 3 4 5 5 6 7 8 8 9 10 10 11 11 12 12 13 14 15 16 17 18 19 20 21 22 23 24 25
16 15 14 13 14 17 19 20 19 18 19 18 19 21 23 23 23 22 21 18 18 18 19 19 18 17 17 17 19 21 23 24 24 24 22 21 20 19 18 17 16 15 14 12 11 10 9 8 6 4 3 2 2 2 1 1 2 3 3 4 5 6 6 7 8 9 9 10 10 11 11 12 13 13 14 15 16 17 18 19 20 21 22 23 24 25
17 15 12 12 14 17 19 21 21 20 20 20 21 23 24 22 22 22 21 20 19 19 18 16 13 11 11 15 19 21 22 23 23 23 21 20 19 19 18 17 15 14 13 12 11 10 10 9 7 5 3 3 2 2 1 0 2 3 3 4 5 6 7 8 8 9 9 10 10 11 11 12 13 14 14 15 16 17 18 19 20 21 22 23 24 25
15 14 13 13 13 16 19 21 21 21 22 23 24 25 25 23 22 23 22 21 20 18 16 15 10 6 5 9 15 20 22 21 21 22 21 19 18 19 18 16 14 13 12 12 11 10 10 9 7 5 3 2 1 1 0 1 2 3 3 4 5 6 7 8 8 9 9 10 10 11 11 12 13 14 15 15 16 17 18 19 20 21 22 23 24 25
14 14 14 13 13 15 19 19 20 22 24 25 25 25 24 23 23 24 23 21 19 16 14 14 11 7 6 7 12 18 22 21 20 20 19 17 17 18 17 15 14 13 12 12 11 10 10 9 7 4 3 2 1 0 1 1 2 3 3 4 5 6 7 8 8 9 9 10 10 11 11 12 13 14 15 16 17 18 19 20 21 22 23 24 25 26
14 14 14 13 14 16 18 19 21 23 25 26 27 26 23 22 22 23 22 21 19 18 16 13 11 10 10 10 15 21 23 22 21 20 17 15 16 17 16 14 13 13 12 12 12 11 10 9 7 5 3 2 1 0 1 1 2 3 4 4 5 6 7 8 8 8 9 9 10 10 11 12 13 14 15 16 17 18 19 20 21 22 23 24 25 26
15 15 15 15 16 17 17 19 22 25 27 29 30 28 25 23 22 21 21 19 18 17 16 13 11 10 11 13 19 23 24 23 21 19 16 14 15 16 16 14 13 13 13 13 12 12 11 9 6 4 2 2 1 1 1 1 2 3 4 4 5 6 7 7 8 8 8 9 9 10 11 12 13 14 15 16 17 18 19 20 21 22 23 24 25 26
16 16 18 19 19 18 17 19 22 26 29 31 31 29 27 25 23 21 20 19 18 16 14 11 9 10 14 17 20 23 24 22 20 18 15 13 14 15 16 15 13 13 14 14 14 13 12 10 7 5 3 1 1 1 1 2 2 3 4 4 5 6 7 7 7 8 8 8 9 10 11 12 14 15 16 17 18 18 19 20 21 22 24 25 26 26
21 20 22 23 22 21 20 21 23 26 29 30 30 28 26 26 24 22 22 21 18 15 13 12 12 14 17 20 22 23 24 22 21 19 16 11 10 13 17 16 14 12 13 14 14 14 12 10 8 6 4 2 1 0 1 2 3 3 4 4 5 6 6 7 7 7 8 8 9 10 11 13 14 15 16 17 18 19 20 21 22 23 24 25 26 26
26 26 25 25 24 23 22 23 25 27 29 30 29 29 28 29 28 26 25 23 21 19 18 18 18 19 20 21 22 24 24 22 22 20 16 10 9 13 17 16 14 12 12 14 15 14 12 10 9 7 5 3 1 1 2 3 3 3 4 4 5 5 6 7 7 7 8 9 10 11 12 13 14 15 16 17 18 19 20 21 22 23 24 25 26 26
28 28 27 27 26 25 24 25 27 29 30 29 28 28 28 30 29 29 28 27 25 24 23 22 20 18 18 20 22 23 24 23 22 20 14 9 10 14 17 17 13 11 12 14 15 14 11 10 9 7 5 4 3 3 3 3 3 3 4 4 5 5 6 6 7 7 8 9 10 11 12 13 14 15 16 17 18 19 20 21 22 24 25 25 26 26
28 28 28 29 28 27 27 28 30 31 31 30 28 27 27 28 29 29 29 28 27 25 23 21 18 15 14 17 19 21 24 24 23 20 15 10 10 14 17 17 13 11 11 14 15 13 10 8 7 7 6 6 5 5 4 4 3 3 4 4 5 5 6 6 7 8 8 9 10 11 12 13 14 15 16 17 18 19 20 22 23 24 25 26 27 28
29 29 29 30 29 29 29 30 31 32 32 31 30 29 29 29 29 28 26 25 25 24 22 17 13 11 12 14 15 18 22 24 24 21 17 12 11 14 16 17 14 11 11 12 13 11 8 6 6 7 7 7 7 6 5 4 3 3 3 4 5 5 6 7 7 8 9 10 10 12 12 13 14 15 16 17 18 20 21 22 23 25 26 27 28 29
27 28 28 29 29 29 29 30 31 32 32 32 32 32 32 32 30 26 23 23 24 23 19 13 9 8 10 10 12 15 20 24 24 21 18 15 13 13 15 16 15 12 11 11 10 9 6 5 5 6 6 7 6 5 4 3 3 3 3 4 5 6 6 7 7 8 9 10 10 11 12 13 14 15 16 17 19 20 21 23 24 25 27 28 29 30
24 25 26 27 27 28 28 29 30 32 32 32 32 32 33 32 28 23 20 23 24 22 16 12 9 7 8 9 10 13 18 21 22 21 19 16 12 11 15 17 16 13 12 10 9 7 6 5 5 6 6 6 6 5 4 3 2 2 3 4 5 6 6 7 7 8 9 9 10 11 12 13 14 15 16 18 19 20 21 23 25 26 27 27 28 29
21 22 23 24 25 26 27 28 29 31 32 32 32 32 32 31 29 26 25 27 25 20 14 12 11 10 9 10 11 11 14 17 21 22 20 16 11 11 16 18 17 14 12 10 7 5 4 5 6 6 6 6 5 4 3 2 1 2 3 4 5 5 6 6 7 8 8 9 10 11 12 13 14 15 16 18 19 20 21 23 25 26 26 26 27 27
18 19 20 21 22 23 25 26 28 29 30 31 32 31 30 29 28 28 29 30 27 21 15 13 12 12 12 11 9 7 9 15 21 24 23 16 11 12 17 18 17 15 13 9 5 2 2 4 6 7 7 6 5 4 3 1 1 2 3 4 5 5 6 6 7 7 8 9 10 11 12 13 14 15 16 17 19 20 21 23 24 25 25 25 26 27
18 19 20 21 21 23 24 25 26 27 28 29 30 29 29 27 26 26 27 29 28 24 18 15 14 14 14 10 6 4 6 15 23 27 25 18 13 14 19 18 17 17 15 11 5 2 2 3 5 7 7 6 5 4 2 1 1 3 4 4 5 5 5 6 6 7 7 8 9 10 11 13 14 15 16 17 18 20 21 22 23 24 24 25 25 26
21 21 22 22 23 24 25 25 26 26 26 27 27 27 27 25 24 24 25 27 28 25 22 19 17 17 17 13 9 6 7 15 25 30 28 20 16 17 21 19 18 18 18 14 7 2 2 3 4 6 6 6 5 4 2 1 2 3 4 5 5 5 5 6 6 7 7 8 9 10 11 12 13 15 16 17 18 19 20 22 23 23 23 24 24 26
22 23 24 24 24 25 25 26 26 26 26 26 26 26 25 24 23 23 24 25 25 24 23 21 20 19 18 15 11 7 9 16 25 31 31 23 18 18 20 19 19 19 19 15 9 4 3 3 5 5 6 6 5 4 2 2 3 4 5 6 6 6 5 6 6 7 7 8 9 10 11 12 13 15 16 17 18 19 20 22 23 23 23 22 23 25
23 24 25 25 25 25 25 25 25 25 26 26 26 25 25 24 23 22 23 24 24 23 22 22 21 20 18 14 10 8 10 17 25 31 32 27 21 19 21 20 19 19 18 13 8 5 4 4 5 5 5 5 5 4 2 2 4 5 6 6 6 6 6 6 7 7 8 9 10 11 13 14 15 15 16 17 18 20 21 23 23 24 23 22 22 23
24 24 25 25 25 25 25 25 25 25 25 25 25 25 25 23 23 23 24 24 24 24 22 22 22 21 21 17 13 11 13 18 25 30 33 29 24 21 21 20 21 20 17 13 8 5 4 5 6 6 5 4 4 3 3 3 4 5 6 6 6 6 6 7 7 8 9 10 11 13 14 15 16 17 18 18 20 21 22 23 24 24 24 23 22 22
23 23 24 25 25 25 25 25 25 25 25 25 25 24 24 23 23 23 24 24 24 24 22 22 21 21 21 21 19 18 19 22 25 30 33 30 27 23 21 20 22 22 18 13 9 6 5 6 6 6 6 5 3 3 3 4 5 6 5 5 5 5 6 7 8 9 10 11 12 13 14 16 17 18 19 20 21 22 23 24 24 24 24 24 23 22
23 22 23 24 25 24 24 24 25 25 24 24 24 23 23 23 23 22 23 23 23 22 21 20 19 19 19 19 19 20 21 22 25 29 32 31 26 23 22 21 22 22 18 13 10 8 8 7 7 6 5 4 3 3 3 4 5 4 4 4 5 6 6 7 8 9 10 11 12 13 15 16 17 18 20 21 21 22 23 24 24 25 25 24 23 23
21 21 21 23 24 24 23 23 23 24 24 24 23 22 22 22 22 22 21 21 21 20 19 18 17 16 16 16 16 17 18 20 24 28 31 30 25 22 23 22 22 21 19 15 12 10 9 8 7 5 4 3 4 4 4 4 4 3 3 5 6 6 7 8 8 9 10 11 12 13 15 16 17 18 19 21 21 22 23 23 25 26 26 26 24 23
20 20 20 21 22 23 22 22 23 23 24 24 23 22 22 22 21 21 21 20 19 19 18 18 16 15 15 14 14 15 17 19 23 27 30 29 25 21 21 22 22 22 20 17 12 9 8 7 7 6 5 4 5 5 6 5 4 3 3 4 5 6 7 8 9 9 11 12 13 14 15 16 17 18 18 19 20 20 22 23 24 25 26 26 26 26
19 19 20 21 22 22 22 22 23 24 24 24 23 23 22 22 21 21 20 20 19 18 18 18 17 16 15 15 15 16 17 20 23 26 28 27 24 20 18 20 22 23 21 17 12 9 6 6 6 7 7 6 6 5 5 4 3 2 2 2 3 5 7 8 9 10 11 12 13 15 16 17 17 17 17 17 18 19 20 21 23 24 24 24 24 25
20 19 20 21 22 22 23 23 24 24 25 24 23 22 22 22 22 21 21 20 19 18 18 17 17 16 16 16 16 17 19 21 24 26 27 25 22 17 15 17 20 21 19 16 13 10 9 8 9 9 9 9 8 7 5 4 3 3 3 2 2 4 7 8 9 10 11 12 13 14 16 16 16 16 16 16 16 17 19 20 21 22 22 22 21 22
20 20 21 22 22 22 23 23 24 24 24 24 23 23 22 23 23 23 22 21 20 19 19 18 18 19 19 19 18 19 20 22 24 25 25 22 19 14 12 14 17 19 17 15 12 11 11 11 12 11 10 9 8 7 6 5 4 4 4 3 3 4 6 7 8 10 11 12 13 14 15 16 16 15 15 15 16 17 18 19 20 20 20 20 20 20
20 21 22 23 23 24 24 24 24 24 24 23 23 23 23 23 24 24 23 23 22 22 21 21 21 21 21 20 19 19 19 21 23 23 22 20 16 12 11 13 16 17 16 14 12 12 12 13 14 13 11 9 8 8 7 6 5 4 4 5 5 4 3 4 7 9 11 12 13 14 15 15 15 15 15 15 15 16 17 18 18 19 19 19 19 19
22 22 23 24 24 24 24 24 24 24 23 22 22 22 22 22 23 23 23 24 24 23 23 22 22 22 21 20 19 18 17 19 20 21 20 17 14 12 12 14 16 16 14 14 14 14 14 15 15 14 13 11 10 9 8 7 6 5 5 6 6 5 4 4 7 9 11 12 13 14 15 15 15 15 15 14 14 15 16 17 17 18 18 19 19 20
23 23 23 23 24 24 23 23 23 23 23 22 22 22 22 22 23 23 24 24 24 24 23 23 22 20 18 17 17 17 17 17 17 18 17 15 14 14 15 16 16 15 13 13 14 15 16 17 16 15 14 13 12 11 10 8 7 6 6 7 7 7 6 6 7 9 11 12 13 14 15 15 15 15 15 14 13 14 15 16 16 17 18 19 20 20
23 23 22 23 23 22 22 22 22 22 22 21 21 22 22 23 23 24 25 25 25 24 23 23 22 19 16 16 17 17 16 16 16 17 17 16 16 16 17 17 16 15 14 14 15 16 17 18 18 16 14 14 13 11 10 8 7 6 6 6 6 6 6 6 7 8 10 12 13 14 15 15 15 15 14 14 14 14 14 15 16 16 18 19 20 20
23 22 21 22 21 21 21 22 22 21 21 21 21 21 22 23 24 24 25 25 24 22 21 22 21 19 17 17 18 17 17 16 17 17 18 18 18 18 17 16 15 15 15 16 17 18 19 18 17 15 13 12 11 10 9 8 8 6 6 6 6 5 4 5 6 8 10 11 13 14 15 16 17 17 16 16 15 14 13 14 15 16 18 19 20 20
23 21 21 20 20 20 20 20 21 21 20 20 20 21 22 23 24 24 24 24 23 21 20 20 20 19 18 18 18 18 18 18 18 18 19 19 20 19 19 18 17 17 18 19 20 20 20 18 16 14 12 10 9 8 7 7 8 7 7 7 6 5 4 4 6 8 9 11 12 14 15 16 17 17 17 16 15 13 13 14 15 16 18 19 20 20
23 22 21 20 20 19 19 20 20 20 20 20 20 20 21 22 22 23 23 22 21 20 20 20 20 20 18 17 17 18 19 19 19 19 19 20 21 22 22 22 22 22 22 22 21 21 20 19 17 16 14 12 10 8 7 7 7 7 7 7 7 6 5 4 6 7 9 11 12 14 15 16 16 17 17 15 13 12 13 14 15 17 19 20 20 20
23 22 21 20 20 19 19 19 20 20 20 21 20 20 20 20 21 21 21 20 20 20 20 21 21 20 19 18 18 18 19 19 19 19 19 20 21 22 22 23 23 22 20 19 19 18 18 17 16 15 15 14 12 9 7 6 6 6 7 7 6 6 5 5 6 8 10 11 13 14 15 15 15 16 17 15 13 12 13 15 17 18 20 21 21 21
23 22 22 21 20 19 19 19 19 20 20 21 21 21 21 20 20 20 20 20 20 20 20 21 21 20 20 19 19 19 19 20 19 19 19 20 20 21 21 20 19 17 15 14 13 12 11 11 11 11 12 12 11 10 8 5 4 4 5 6 6 6 6 6 6 8 10 11 11 13 14 14 14 15 16 15 13 12 13 15 17 19 21 21 21 22
Wind_Direction
148 152 156 160 161 160 163 170 171 168 166 170 172 171 168 164 161 160 160 160 158 156 154 155 158 163 167 171 174 176 175 174 173 173 173 174 175 177 178 180 181 182 182 180 176 173 169 167 166 166 168 171 174 179 186 197 216 241 264 280 295 308 314 320 327 337 345 351 354 354 352 349 344 340 338 336 335 335 335 335 334 334 333 333 331 330
145 148 150 155 157 157 158 165 169 168 166 167 166 163 158 154 152 153 154 155 155 153 152 152 155 158 161 166 169 171 170 169 169 169 170 171 172 174 175 176 176 176 174 172 169 167 167 168 169 171 175 177 181 187 197 214 242 272 293 303 313 318 322 324 329 337 344 352 354 352 350 346 343 340 339 337 337 336 336 335 334 334 333 332 331 329
138 140 143 150 153 152 152 157 164 167 166 163 160 157 153 150 149 149 150 151 151 151 150 149 150 152 155 158 162 164 164 164 164 165 166 167 168 169 170 171 171 170 169 168 168 168 169 171 174 176 180 182 185 190 200 217 260 302 318 323 325 327 329 330 334 338 345 351 354 353 350 346 342 341 339 338 337 337 336 335 334 333 332 331 330 329
134 134 137 144 147 147 148 152 156 158 158 156 153 152 151 149 147 147 148 147 147 147 146 146 146 147 148 151 154 157 159 160 160 161 162 162 163 164 166 166 166 167 166 167 168 169 171 173 175 177 179 181 182 183 186 199 277 326 333 331 331 332 334 336 339 344 349 353 355 353 350 346 344 342 340 339 338 337 336 335 334 332 331 330 329 329
127 131 134 137 136 137 143 148 150 149 148 147 147 147 147 146 145 145 145 144 144 143 143 143 143 144 144 145 148 152 155 156 156 156 157 157 159 160 161 162 163 163 164 165 166 167 169 172 173 173 172 170 168 167 164 160 339 340 336 334 333 334 336 340 346 351 357 358 357 354 351 347 345 342 341 339 338 337 336 335 334 332 331 330 329 328
123 128 132 134 132 132 137 142 145 145 144 143 144 144 143 143 142 141 140 140 140 140 141 141 141 140 140 141 144 147 150 151 151 151 151 152 154 155 156 158 159 160 161 162 163 163 163 163 163 160 157 156 155 154 153 135 6 344 337 337 336 337 341 347 353 357 0 0 358 355 351 348 345 343 341 340 338 337 336 334 333 331 330 329 328 327
122 126 130 132 132 132 135 139 143 145 144 142 140 140 139 138 138 138 137 137 137 137 137 137 136 135 135 137 140 142 143 143 143 143 144 146 148 150 152 154 155 156 157 158 157 156 154 153 151 149 148 148 148 147 142 109 351 342 339 339 340 343 347 353 357 0 1 0 357 354 350 348 345 343 341 340 338 337 335 334 332 331 330 329 328 327
123 125 128 128 128 130 133 138 143 146 146 143 139 136 134 134 134 134 135 135 134 134 134 132 131 130 131 134 136 137 138 137 137 138 139 140 142 145 147 149 151 151 152 152 150 147 145 144 143 144 145 144 143 139 128 42 352 344 341 341 344 348 353 357 1 1 1 359 356 353 350 347 345 343 341 340 338 336 335 333 332 331 330 328 328 327
130 128 130 132 132 132 132 138 143 146 147 145 142 138 134 131 130 130 131 131 131 132 133 132 130 128 129 131 132 133 133 134 135 136 137 138 139 141 142 144 145 147 147 146 143 141 140 140 140 140 142 142 140 134 115 31 356 349 345 345 348 352 356 0 1 2 0 358 355 352 349 347 344 343 341 340 338 336 334 333 332 331 330 329 328 327
134 134 134 137 140 140 138 139 143 146 147 146 145 143 141 136 132 128 125 126 129 132 133 133 131 129 129 130 130 130 130 130 131 132 134 136 138 139 139 140 141 142 142 140 138 138 139 141 142 143 143 143 141 135 113 27 356 351 348 348 351 353 357 0 1 0 359 356 353 351 348 346 344 342 341 339 337 335 334 333 332 331 330 328 328 327
134 135 134 135 139 142 142 143 145 146 146 144 142 141 141 141 139 134 128 127 130 132 132 132 131 130 131 132 134 136 135 133 132 131 131 134 135 136 136 137 137 137 138 136 135 137 140 145 148 150 149 147 145 135 96 9 354 350 350 349 351 352 356 357 358 358 356 355 352 349 347 346 344 342 341 339 337 335 334 332 331 330 330 329 328 327
137 137 136 137 137 138 140 142 145 145 145 142 138 136 138 142 143 141 137 136 136 135 133 131 130 131 133 137 140 142 142 139 136 135 136 137 138 137 137 136 133 132 134 134 135 139 143 148 152 154 152 150 147 135 96 5 348 346 348 347 348 349 352 354 356 355 354 353 350 348 346 345 343 342 340 338 336 335 333 332 331 331 330 329 328 327
142 143 142 141 141 142 142 143 144 146 148 148 147 147 149 148 145 142 139 139 141 141 137 132 130 132 137 142 146 147 145 141 140 140 141 142 143 143 143 141 139 136 135 134 135 139 145 149 152 152 151 151 148 135 32 336 337 341 343 344 345 347 349 351 353 353 352 351 349 347 345 344 343 342 340 338 336 335 334 333 332 331 331 329 328 327
145 146 145 146 148 150 151 152 153 156 160 160 158 155 153 151 146 140 135 136 139 141 138 131 128 131 138 144 148 150 148 144 143 144 145 146 148 150 150 150 149 147 145 141 141 144 150 150 148 144 143 136 122 75 19 347 337 337 341 342 343 346 348 351 352 352 351 350 348 347 345 345 343 342 340 338 337 336 335 334 332 332 331 329 328 326
151 150 151 153 157 159 161 161 162 164 166 163 157 152 149 148 146 142 138 137 138 139 134 128 126 130 137 144 149 151 150 147 145 144 145 149 153 156 157 156 156 156 156 153 153 157 162 158 147 133 133 142 144 133 90 14 344 336 342 343 345 348 349 351 351 350 350 350 349 347 346 345 344 342 340 339 338 337 336 334 333 332 331 329 328 327
158 159 159 162 163 165 166 166 166 165 162 159 154 150 148 149 149 148 145 144 143 140 134 127 122 126 138 149 152 152 150 149 147 146 147 149 155 160 161 159 159 162 165 165 165 167 170 165 154 141 142 168 187 184 165 342 336 338 343 346 348 350 351 351 351 351 350 350 349 349 348 346 344 342 340 339 338 337 335 334 333 332 331 330 328 327
161 164 166 165 166 168 169 168 166 163 160 158 156 155 155 156 155 153 150 149 147 146 144 142 139 138 147 159 159 156 153 150 149 149 148 150 156 163 166 162 161 165 170 172 173 172 170 162 148 135 147 177 200 221 290 324 334 340 343 346 348 350 351 351 351 351 352 351 350 349 348 345 344 342 340 339 338 337 335 334 333 332 332 331 330 330
164 168 168 167 168 169 169 168 166 163 160 158 158 158 159 159 158 156 154 153 153 155 157 156 156 155 156 166 171 167 159 154 151 149 148 149 157 165 169 167 165 166 169 170 172 171 165 150 134 125 153 175 174 91 344 335 337 340 342 344 346 348 350 351 351 352 352 353 351 349 347 345 343 342 340 339 338 337 336 335 334 333 333 333 333 332
167 169 169 170 170 171 170 169 167 164 162 161 159 158 157 158 159 159 158 159 160 161 162 162 161 158 157 163 169 169 164 159 154 149 144 147 155 164 169 167 165 165 165 165 165 163 155 141 132 134 165 179 178 179 319 331 334 336 339 341 344 346 348 350 351 353 353 352 351 349 347 345 343 342 341 339 338 337 336 335 335 335 335 335 334 333
168 172 173 171 170 171 174 175 173 170 167 165 162 159 157 158 160 161 163 164 165 165 162 159 155 152 153 157 163 166 166 163 156 148 142 145 153 160 166 164 162 161 162 163 163 159 150 138 132 133 154 176 187 210 288 317 324 331 334 338 341 344 346 350 352 354 354 353 350 348 347 346 344 343 342 340 339 338 337 337 337 337 336 336 335 334
170 176 179 175 172 173 178 180 178 174 170 166 162 160 159 160 161 164 165 165 164 161 157 148 142 145 152 154 159 164 165 162 156 148 144 145 152 160 163 163 162 161 161 163 164 161 153 143 133 125 121 127 171 236 297 316 321 325 330 335 340 344 347 351 353 354 354 351 349 348 347 346 345 344 342 341 339 339 339 339 339 339 338 337 336 335
175 179 182 180 178 178 179 179 178 175 172 167 163 161 162 162 163 165 166 164 160 155 147 138 139 147 153 154 158 162 164 165 161 155 147 142 152 163 165 164 163 162 164 165 167 165 160 152 145 139 137 137 145 296 312 320 321 323 328 336 342 347 351 353 355 354 353 351 349 348 348 347 346 344 343 342 341 341 341 341 341 340 339 338 337 337
181 182 183 182 182 181 179 178 176 175 173 171 169 168 167 167 166 165 164 162 158 152 146 144 145 148 151 153 157 161 164 166 166 161 149 144 156 168 169 166 164 164 167 170 170 169 168 164 159 158 161 167 187 294 310 317 321 325 331 339 347 352 356 357 357 355 352 351 350 349 349 348 346 345 344 343 343 343 344 343 343 341 340 340 340 341
186 185 184 184 183 182 179 177 176 175 174 174 173 172 171 170 168 166 164 162 158 153 148 144 140 138 143 151 156 161 166 168 168 164 154 146 156 167 170 168 165 165 171 174 174 172 172 175 178 182 192 210 237 276 294 306 316 324 334 344 353 358 1 0 358 355 353 352 351 351 350 349 347 346 345 344 345 345 345 345 344 343 343 343 344 345
191 189 187 186 184 183 181 179 177 176 174 174 172 171 169 168 166 164 162 160 156 150 144 135 128 127 138 149 158 165 170 172 172 169 159 146 151 163 170 170 167 167 171 177 178 177 176 184 196 208 222 240 256 268 280 293 308 323 339 352 1 5 5 3 359 357 355 354 353 351 350 349 348 347 346 346 347 347 347 346 346 345 345 346 347 349
197 195 192 190 188 187 186 183 180 178 177 176 175 172 170 166 163 158 154 153 151 147 140 132 128 133 144 152 162 170 174 176 177 176 169 154 148 159 170 171 169 167 168 175 178 179 181 192 210 224 237 250 259 264 272 284 304 325 346 1 7 10 8 4 0 358 356 355 353 352 351 349 348 348 348 349 349 349 349 348 348 348 348 349 350 350
199 198 196 194 192 191 189 186 184 181 181 180 180 177 173 167 159 151 148 152 154 152 145 141 139 142 147 157 168 175 178 178 180 181 178 164 152 155 168 171 169 164 163 168 174 179 185 196 214 231 241 250 254 257 262 275 301 331 356 9 14 13 9 5 1 359 357 355 354 352 350 349 349 350 351 351 352 352 351 351 351 351 351 351 350 349
197 196 195 193 192 191 190 188 186 185 185 185 185 183 178 170 160 154 158 163 162 158 153 151 149 149 154 165 172 176 180 182 183 183 182 170 156 154 167 169 167 162 158 159 167 178 189 202 216 227 234 240 241 244 250 269 304 344 9 17 18 15 10 5 2 359 357 355 353 352 351 350 351 353 353 354 355 355 354 354 353 353 352 351 348 346
193 192 190 189 188 187 187 186 186 186 188 189 189 187 184 177 170 167 169 169 166 161 159 157 156 155 157 158 161 169 181 189 188 186 183 170 156 156 167 167 166 163 157 150 153 171 196 214 222 223 222 223 225 229 239 264 319 4 22 23 21 15 10 5 2 0 357 355 353 352 352 353 354 356 356 357 357 358 358 357 356 354 352 350 347 344
184 184 183 183 183 182 181 180 181 184 187 189 189 188 185 183 181 178 177 175 171 166 163 161 158 154 150 147 148 163 188 198 195 190 184 172 158 158 165 165 166 164 158 147 139 150 196 218 222 222 217 213 212 217 228 254 4 32 34 30 23 16 10 7 3 0 358 355 354 353 354 356 358 359 359 359 0 0 1 0 358 355 352 349 347 345
171 172 172 174 176 176 176 176 177 180 183 186 186 185 183 184 185 186 184 181 177 173 168 165 162 160 156 152 152 172 196 198 196 192 186 175 165 163 165 165 167 167 163 155 147 145 170 198 212 216 216 211 209 212 212 196 57 50 44 36 26 17 11 8 4 1 359 357 356 357 359 0 1 2 2 2 2 3 3 3 1 357 353 350 347 345
165 165 166 168 170 171 172 173 175 177 179 182 183 183 184 186 189 190 189 186 183 180 175 171 169 168 169 172 176 179 183 189 192 192 188 178 167 165 167 166 167 168 168 162 156 146 146 165 182 193 204 206 209 209 197 131 74 61 51 39 28 20 15 10 6 3 1 0 0 2 5 6 6 6 5 5 5 6 6 6 4 0 355 351 347 345
161 162 162 164 166 168 170 172 174 176 178 180 182 185 188 190 193 194 192 189 187 184 181 176 173 173 176 179 178 169 165 178 187 190 187 179 167 162 166 166 167 170 172 170 165 150 137 144 156 169 184 197 203 203 184 120 81 67 54 42 31 23 18 14 10 6 4 4 6 9 11 12 11 9 8 8 9 10 9 9 7 4 359 353 349 346
159 159 160 162 163 166 168 171 173 175 178 181 184 187 190 192 193 193 190 188 187 187 187 184 180 177 176 175 168 154 154 171 182 187 187 182 170 160 163 165 167 170 173 175 173 157 138 138 145 151 164 182 193 195 171 116 84 70 58 45 32 23 19 17 15 12 10 11 12 14 15 14 13 12 12 13 13 12 11 10 8 6 3 358 353 349
157 158 159 161 162 164 166 168 171 174 178 181 184 187 189 190 191 190 188 187 187 187 189 189 187 184 181 176 167 156 156 168 179 185 187 185 175 164 161 165 169 170 170 172 170 156 142 146 149 149 152 162 174 177 151 111 86 69 57 47 34 23 20 21 19 18 17 17 17 16 14 13 13 13 14 14 14 14 12 10 8 6 5 2 359 355
157 157 159 161 162 163 164 167 170 174 177 180 184 186 187 188 188 187 187 187 187 188 188 188 189 189 189 188 182 173 168 172 178 183 187 188 181 169 162 166 171 172 170 168 165 157 150 149 151 152 150 150 153 151 132 106 86 68 54 45 36 30 29 29 27 23 21 20 18 15 13 11 11 12 14 15 14 13 11 9 7 6 5 4 3 0
157 158 160 162 163 163 165 167 170 173 176 179 181 183 184 184 184 183 183 184 185 186 185 185 186 187 191 195 195 189 182 179 180 183 186 189 185 175 167 168 172 173 170 166 162 157 151 148 148 150 149 144 136 134 131 110 89 70 55 48 43 38 34 35 34 29 24 21 18 15 12 10 9 10 12 13 13 11 9 7 6 6 5 5 4 2
158 160 163 164 165 165 166 167 170 172 174 175 176 178 179 179 179 178 178 179 180 182 181 180 180 182 186 191 194 193 189 184 181 182 185 187 186 181 174 171 172 174 173 169 163 158 154 151 151 151 147 131 122 127 138 124 108 87 65 54 48 42 36 36 34 30 25 22 18 14 12 10 9 9 10 10 10 8 6 6 7 7 7 5 3 2
160 162 164 165 166 167 167 167 169 171 172 173 173 172 172 172 172 172 171 172 173 175 176 175 173 173 175 178 181 183 184 182 181 182 183 184 185 184 180 175 174 175 176 172 167 164 164 161 158 153 145 131 122 123 127 120 114 102 74 53 45 41 38 36 33 29 24 20 17 14 11 10 9 8 7 8 7 5 3 4 5 6 6 4 2 1
163 163 164 166 168 169 168 169 169 170 169 168 167 167 166 164 163 164 165 166 166 168 170 170 169 166 165 166 167 171 175 178 179 180 180 181 182 184 185 181 178 177 176 172 167 165 170 161 149 140 136 130 127 126 122 113 111 107 81 45 31 33 37 36 31 27 23 19 15 12 10 9 9 8 8 8 7 5 3 3 4 5 5 2 359 357
163 163 164 167 169 169 169 169 168 166 164 162 161 160 159 159 157 156 156 157 158 159 162 162 160 156 155 155 158 163 167 171 173 175 176 177 179 181 187 188 183 177 174 171 167 162 157 146 135 128 124 121 122 121 118 114 115 109 89 61 40 37 39 33 28 24 21 17 14 11 10 10 10 10 11 11 9 8 7 5 3 4 5 3 0 357
162 162 164 166 166 166 166 165 163 161 160 159 157 156 157 158 156 153 151 148 147 149 152 151 146 139 135 137 143 151 158 163 166 169 171 173 174 178 185 187 183 178 173 168 163 157 151 143 133 125 121 119 119 117 113 113 111 103 86 69 55 45 37 28 24 22 19 17 13 11 10 10 11 12 14 12 11 10 10 8 6 5 3 1 0 360
161 162 163 164 164 163 162 159 157 156 156 155 154 154 156 158 157 154 151 146 144 143 145 145 142 135 126 121 125 134 145 153 159 163 166 167 170 173 179 180 178 174 170 164 156 149 147 141 133 125 121 118 118 118 115 111 101 88 78 74 60 45 31 13 18 23 22 19 15 13 12 12 14 15 16 14 12 10 9 8 7 6 4 2 1 2
158 160 160 159 158 158 156 154 153 153 153 153 152 152 154 155 156 154 150 146 143 142 141 141 138 132 123 119 119 123 131 142 152 158 161 163 165 168 170 169 168 168 167 162 153 144 139 133 128 124 121 119 117 114 112 107 97 85 78 75 69 60 43 23 18 19 20 20 19 17 15 16 17 18 17 14 12 10 9 7 6 5 4 4 4 4
154 154 154 153 153 151 150 151 152 153 153 152 151 150 151 153 154 153 149 145 143 141 140 139 135 129 121 120 121 122 124 131 140 148 153 156 158 160 162 161 160 159 160 157 151 143 134 125 121 120 119 116 112 108 103 100 96 90 83 78 71 64 54 39 26 19 16 17 18 19 20 21 21 18 15 14 14 13 10 7 5 4 4 5 6 6
148 148 148 150 150 150 150 152 152 151 150 149 149 149 150 152 152 151 149 146 142 140 140 140 136 131 127 127 127 126 124 125 129 135 141 146 149 152 156 158 158 157 154 149 144 138 131 123 117 114 111 108 103 99 97 97 95 89 81 76 69 58 44 32 23 19 19 18 18 21 24 26 24 20 15 16 17 15 10 7 5 4 5 6 7 7
147 147 148 149 149 150 150 151 150 148 146 145 147 148 150 151 150 148 147 145 142 139 138 137 134 130 129 131 132 130 127 125 124 125 130 136 140 144 148 150 152 152 148 141 134 127 121 115 111 109 107 102 97 94 94 95 93 88 81 75 68 55 37 24 19 20 24 23 21 22 25 27 25 22 21 21 18 13 9 8 8 8 8 8 8 7
150 150 150 150 149 148 148 148 148 146 145 144 145 147 148 149 148 146 144 143 141 139 136 132 129 126 126 128 130 131 130 128 127 127 128 129 133 135 136 136 135 133 130 127 122 118 112 108 104 100 100 100 99 97 94 92 90 87 82 77 69 58 40 25 22 25 28 27 27 26 27 26 23 20 20 19 15 9 6 7 9 11 11 11 10 8
152 151 151 151 150 148 148 149 148 147 145 144 143 144 146 147 147 145 143 142 140 138 136 133 130 127 126 126 128 129 128 128 128 128 129 129 129 129 129 128 125 121 117 114 111 107 104 100 97 95 95 94 94 95 95 90 85 80 74 71 66 60 47 32 29 32 34 32 31 30 29 27 24 23 22 17 9 3 2 6 9 12 13 13 11 9
151 151 152 151 150 150 150 150 149 148 146 144 143 143 144 145 145 144 143 141 140 137 136 134 132 130 128 129 129 129 129 129 129 129 131 132 132 131 130 128 125 120 115 110 106 101 96 91 88 88 91 92 92 90 87 83 76 68 62 59 62 63 55 44 40 42 40 36 32 30 28 25 24 24 24 18 9 2 2 5 8 11 12 12 11 10
151 152 152 152 151 150 150 150 150 149 148 147 145 144 144 144 144 144 142 140 137 135 134 133 131 130 130 130 131 132 133 132 132 133 135 137 137 137 136 135 132 129 125 121 118 114 107 97 87 80 78 84 91 93 86 76 66 59 56 54 60 66 63 56 51 47 42 35 28 25 24 23 22 22 22 19 12 3 1 3 6 9 10 10 9 8